| time (UTC) | temp C | wind direction | speed KPH | gust KPH | rain 1hr cm | rain 24hr cm | rain mn cm | humidity % | barometer mb |
| 20260508025808 | 12 | 36 | 0.0 | 0.0 | 0.00 | 1.57 | 1.57 | 95 | 1014.8 |
| 20260508025306 | 12 | 36 | 0.0 | 0.0 | 0.00 | 1.57 | 1.57 | 95 | 1014.7 |
| 20260508024802 | 12 | 36 | 0.0 | 0.0 | 0.00 | 1.57 | 1.57 | 95 | 1014.9 |
| 20260508024259 | 12 | 36 | 0.0 | 0.0 | 0.00 | 1.57 | 1.57 | 95 | 1014.6 |
| 20260508023756 | 12 | 34 | 0.0 | 0.0 | 0.00 | 1.57 | 1.57 | 95 | 1014.7 |
| 20260508023253 | 12 | 38 | 0.0 | 0.0 | 0.00 | 1.57 | 1.57 | 94 | 1014.5 |
| 20260508022748 | 12 | 38 | 0.0 | 0.0 | 0.00 | 1.57 | 1.57 | 94 | 1014.3 |
| 20260508022245 | 12 | 38 | 0.0 | 0.0 | 0.00 | 1.57 | 1.57 | 94 | 1014.4 |
| 20260508021742 | 12 | 38 | 0.0 | 0.0 | 0.00 | 1.57 | 1.57 | 94 | 1014.6 |
| 20260508021237 | 12 | 38 | 0.0 | 0.0 | 0.00 | 1.57 | 1.57 | 94 | 1014.4 |
| 20260508020735 | 12 | 38 | 0.0 | 0.0 | 0.00 | 1.57 | 1.57 | 94 | 1014.5 |
| 20260508020232 | 12 | 38 | 0.0 | 0.0 | 0.00 | 1.57 | 1.57 | 94 | 1014.5 |
| 20260508015729 | 12 | 34 | 0.0 | 0.0 | 0.00 | 1.57 | 1.57 | 94 | 1014.6 |
| 20260508015227 | 12 | 29 | 0.0 | 0.0 | 0.00 | 1.57 | 1.57 | 94 | 1014.5 |
| 20260508014723 | 12 | 29 | 0.0 | 0.0 | 0.00 | 1.57 | 1.57 | 93 | 1014.3 |
| 20260508014220 | 12 | 29 | 0.0 | 0.0 | 0.00 | 1.57 | 1.57 | 93 | 1014.0 |
| 20260508013716 | 12 | 24 | 0.0 | 0.0 | 0.00 | 1.57 | 1.57 | 92 | 1013.8 |
| 20260508013212 | 12 | 24 | 0.0 | 0.0 | 0.00 | 1.57 | 1.57 | 92 | 1013.7 |
| 20260508012710 | 12 | 24 | 0.0 | 0.0 | 0.00 | 1.57 | 1.57 | 92 | 1013.4 |
| 20260508012207 | 12 | 24 | 0.0 | 0.0 | 0.00 | 1.57 | 1.57 | 92 | 1013.4 |
| 20260508011705 | 12 | 24 | 0.0 | 0.0 | 0.00 | 1.57 | 1.57 | 91 | 1013.7 |
| 20260508011202 | 12 | 24 | 0.0 | 0.0 | 0.00 | 1.57 | 1.57 | 91 | 1013.9 |
| 20260508010659 | 12 | 24 | 0.0 | 0.0 | 0.00 | 1.57 | 1.57 | 91 | 1013.9 |
| 20260508010157 | 12 | 23 | 0.0 | 0.0 | 0.00 | 1.57 | 1.57 | 90 | 1013.8 |
| 20260508005654 | 12 | 37 | 0.0 | 0.0 | 0.00 | 1.57 | 1.57 | 90 | 1013.9 |
| 20260508005150 | 13 | 37 | 0.0 | 0.0 | 0.00 | 1.57 | 1.57 | 91 | 1013.6 |
| 20260508004646 | 13 | 38 | 0.0 | 0.0 | 0.00 | 1.57 | 1.57 | 91 | 1013.7 |
| 20260508004142 | 13 | 34 | 0.0 | 0.0 | 0.00 | 1.57 | 1.57 | 91 | 1013.4 |
| 20260508003639 | 13 | 34 | 0.0 | 0.0 | 0.00 | 1.57 | 1.57 | 91 | 1013.3 |
| 20260508003137 | 13 | 38 | 0.0 | 0.0 | 0.00 | 1.57 | 1.57 | 91 | 1013.3 |
| 20260508002633 | 13 | 45 | 0.0 | 0.0 | 0.00 | 1.57 | 1.57 | 91 | 1013.4 |
| 20260508002131 | 13 | 7 | 0.0 | 0.0 | 0.00 | 1.57 | 1.57 | 91 | 1013.4 |
| 20260508001631 | 13 | 32 | 0.0 | 0.0 | 0.00 | 1.57 | 1.57 | 90 | 1013.5 |
| 20260508001128 | 13 | 35 | 0.0 | 1.6 | 0.00 | 1.57 | 1.57 | 91 | 1013.3 |
| 20260508000624 | 13 | 37 | 0.0 | 0.0 | 0.00 | 1.57 | 1.57 | 91 | 1012.9 |
| 20260508000122 | 13 | 39 | 0.0 | 1.6 | 0.00 | 1.57 | 1.57 | 91 | 1012.9 |
| 20260507235618 | 13 | 32 | 0.0 | 0.0 | 0.00 | 1.57 | 1.57 | 91 | 1012.9 |
| 20260507235116 | 13 | 34 | 0.0 | 0.0 | 0.00 | 1.57 | 1.57 | 91 | 1012.4 |
| 20260507234612 | 13 | 25 | 0.0 | 0.0 | 0.00 | 1.57 | 1.57 | 91 | 1012.7 |
| 20260507234108 | 13 | 24 | 0.0 | 0.0 | 0.00 | 1.57 | 1.57 | 90 | 1012.5 |
| 20260507233605 | 13 | 34 | 0.0 | 0.0 | 0.00 | 1.57 | 1.57 | 90 | 1012.4 |
| 20260507233104 | 13 | 23 | 0.0 | 1.6 | 0.00 | 1.57 | 1.57 | 88 | 1012.4 |
| 20260507232600 | 13 | 117 | 1.6 | 1.6 | 0.00 | 1.57 | 1.57 | 90 | 1012.2 |
| 20260507232058 | 13 | 71 | 0.0 | 3.2 | 0.00 | 1.57 | 1.57 | 89 | 1012.2 |
| 20260507231553 | 13 | 43 | 0.0 | 1.6 | 0.00 | 1.57 | 1.57 | 89 | 1012.3 |
| 20260507231051 | 13 | 62 | 0.0 | 1.6 | 0.00 | 1.57 | 1.57 | 90 | 1012.4 |
| 20260507230547 | 13 | 55 | 0.0 | 0.0 | 0.00 | 1.57 | 1.57 | 91 | 1012.4 |
| 20260507230044 | 13 | 27 | 0.0 | 1.6 | 0.00 | 1.57 | 1.57 | 90 | 1012.3 |
| 20260507225539 | 13 | 43 | 0.0 | 1.6 | 0.00 | 1.57 | 1.57 | 90 | 1012.4 |
| 20260507225036 | 13 | 42 | 0.0 | 1.6 | 0.00 | 1.57 | 1.57 | 90 | 1012.1 |
| 20260507224531 | 13 | 33 | 0.0 | 0.0 | 0.00 | 1.57 | 1.57 | 91 | 1012.0 |
| 20260507224028 | 13 | 34 | 0.0 | 0.0 | 0.00 | 1.57 | 1.57 | 90 | 1012.1 |
| 20260507223524 | 13 | 27 | 0.0 | 0.0 | 0.00 | 1.57 | 1.57 | 90 | 1011.9 |
| 20260507223022 | 13 | 354 | 1.6 | 1.6 | 0.00 | 1.57 | 1.57 | 91 | 1012.0 |
| 20260507222519 | 13 | 36 | 0.0 | 1.6 | 0.00 | 1.57 | 1.57 | 92 | 1012.1 |
| 20260507222015 | 13 | 43 | 0.0 | 0.0 | 0.00 | 1.57 | 1.57 | 92 | 1012.0 |
| 20260507221512 | 13 | 32 | 0.0 | 0.0 | 0.00 | 1.57 | 1.57 | 91 | 1012.1 |
| 20260507221008 | 13 | 20 | 0.0 | 3.2 | 0.00 | 1.57 | 1.57 | 91 | 1012.2 |
| 20260507220506 | 13 | 27 | 0.0 | 0.0 | 0.00 | 1.57 | 1.57 | 90 | 1012.4 |
| 20260507220003 | 13 | 33 | 0.0 | 3.2 | 0.00 | 1.57 | 1.57 | 90 | 1012.4 |
| 20260507215458 | 13 | 41 | 0.0 | 1.6 | 0.00 | 1.57 | 1.57 | 89 | 1012.4 |
| 20260507214957 | 13 | 42 | 0.0 | 1.6 | 0.00 | 1.57 | 1.57 | 91 | 1012.1 |
| 20260507214454 | 13 | 48 | 0.0 | 0.0 | 0.00 | 1.57 | 1.57 | 90 | 1012.1 |
| 20260507213949 | 13 | 29 | 0.0 | 1.6 | 0.00 | 1.57 | 1.57 | 89 | 1012.0 |
| 20260507213446 | 13 | 36 | 0.0 | 0.0 | 0.00 | 1.57 | 1.57 | 91 | 1012.1 |
| 20260507212943 | 13 | 19 | 0.0 | 1.6 | 0.00 | 1.57 | 1.57 | 90 | 1012.1 |
| 20260507212438 | 13 | 41 | 0.0 | 3.2 | 0.00 | 1.57 | 1.57 | 89 | 1012.0 |
| 20260507211936 | 13 | 39 | 0.0 | 0.0 | 0.00 | 1.57 | 1.57 | 89 | 1012.1 |
| 20260507211432 | 13 | 51 | 0.0 | 0.0 | 0.00 | 1.57 | 1.57 | 90 | 1012.1 |
| 20260507210929 | 13 | 35 | 0.0 | 1.6 | 0.00 | 1.57 | 1.57 | 89 | 1011.9 |
| 20260507210426 | 13 | 31 | 0.0 | 1.6 | 0.00 | 1.57 | 1.57 | 90 | 1011.8 |
| 20260507205923 | 13 | 55 | 1.6 | 3.2 | 0.00 | 1.57 | 1.57 | 91 | 1012.0 |
| 20260507205420 | 13 | 15 | 0.0 | 1.6 | 0.00 | 1.57 | 1.57 | 91 | 1011.6 |
| 20260507204916 | 13 | 45 | 0.0 | 3.2 | 0.00 | 1.57 | 1.57 | 92 | 1011.7 |
| 20260507204412 | 13 | 63 | 0.0 | 1.6 | 0.00 | 1.57 | 1.57 | 92 | 1011.6 |
| 20260507203910 | 13 | 30 | 0.0 | 0.0 | 0.00 | 1.57 | 1.57 | 92 | 1011.6 |
| 20260507203408 | 13 | 82 | 1.6 | 6.4 | 0.00 | 1.57 | 1.57 | 91 | 1011.7 |
| 20260507202904 | 13 | 45 | 0.0 | 0.0 | 0.00 | 1.57 | 1.57 | 92 | 1011.6 |
| 20260507202401 | 13 | 45 | 1.6 | 3.2 | 0.00 | 1.57 | 1.57 | 91 | 1011.5 |
| 20260507201856 | 13 | 49 | 0.0 | 1.6 | 0.00 | 1.57 | 1.57 | 91 | 1011.4 |
| 20260507201352 | 14 | 25 | 0.0 | 1.6 | 0.00 | 1.57 | 1.57 | 92 | 1011.2 |
| 20260507200848 | 14 | 15 | 1.6 | 3.2 | 0.00 | 1.57 | 1.57 | 93 | 1011.2 |
| 20260507200344 | 14 | 22 | 0.0 | 1.6 | 0.00 | 1.57 | 1.57 | 93 | 1011.4 |
| 20260507195840 | 14 | 51 | 0.0 | 1.6 | 0.00 | 1.57 | 1.57 | 93 | 1011.4 |
| 20260507195338 | 15 | 22 | 0.0 | 0.0 | 0.00 | 1.57 | 1.57 | 93 | 1011.5 |
| 20260507194835 | 15 | 42 | 0.0 | 3.2 | 0.00 | 1.57 | 1.57 | 93 | 1011.3 |
| 20260507194331 | 15 | 37 | 0.0 | 0.0 | 0.00 | 1.57 | 1.57 | 94 | 1010.9 |
| 20260507193828 | 15 | 50 | 1.6 | 3.2 | 0.00 | 1.57 | 1.57 | 94 | 1011.1 |
| 20260507193326 | 14 | 37 | 0.0 | 1.6 | 0.00 | 1.57 | 1.57 | 94 | 1011.1 |
| 20260507192821 | 14 | 34 | 0.0 | 1.6 | 0.00 | 1.57 | 1.57 | 94 | 1011.2 |
| 20260507192318 | 14 | 324 | 0.0 | 1.6 | 0.00 | 1.57 | 1.57 | 94 | 1011.5 |
| 20260507191814 | 14 | 32 | 0.0 | 1.6 | 0.00 | 1.57 | 1.57 | 94 | 1011.3 |
| 20260507191310 | 14 | 28 | 0.0 | 0.0 | 0.00 | 1.57 | 1.57 | 94 | 1011.5 |
| 20260507190808 | 15 | 38 | 0.0 | 1.6 | 0.00 | 1.57 | 1.57 | 94 | 1011.6 |
| 20260507190306 | 15 | 41 | 0.0 | 1.6 | 0.18 | 1.57 | 1.57 | 94 | 1011.2 |
| 20260507185805 | 15 | 30 | 0.0 | 0.0 | 0.18 | 1.57 | 1.57 | 94 | 1011.2 |
| 20260507185301 | 15 | 32 | 0.0 | 0.0 | 0.00 | 1.55 | 1.55 | 94 | 1010.9 |
| 20260507184758 | 15 | 23 | 0.0 | 1.6 | 0.00 | 1.55 | 1.55 | 94 | 1010.6 |
| 20260507184256 | 15 | 358 | 0.0 | 1.6 | 0.00 | 1.55 | 1.55 | 94 | 1011.2 |
| 20260507183753 | 15 | 81 | 1.6 | 1.6 | 0.00 | 1.55 | 1.55 | 93 | 1011.3 |
| 20260507183250 | 15 | 60 | 0.0 | 1.6 | 0.00 | 1.55 | 1.55 | 94 | 1011.5 |
| 20260507182748 | 15 | 30 | 0.0 | 1.6 | 0.00 | 1.55 | 1.55 | 94 | 1011.1 |
| 20260507182247 | 15 | 42 | 0.0 | 1.6 | 0.00 | 1.55 | 1.55 | 94 | 1010.5 |
| 20260507181745 | 15 | 1 | 0.0 | 1.6 | 0.00 | 1.55 | 1.55 | 94 | 1010.7 |
| 20260507181241 | 15 | 50 | 0.0 | 3.2 | 0.00 | 1.55 | 1.55 | 94 | 1010.4 |
| 20260507180737 | 15 | 55 | 1.6 | 1.6 | 0.13 | 1.55 | 1.55 | 94 | 1010.5 |
| 20260507180235 | 15 | 51 | 0.0 | 1.6 | 0.13 | 1.55 | 1.55 | 94 | 1010.6 |
| 20260507175730 | 15 | 38 | 0.0 | 3.2 | 0.18 | 1.52 | 1.52 | 93 | 1010.6 |
| 20260507175227 | 16 | 15 | 0.0 | 1.6 | 0.18 | 1.52 | 1.52 | 92 | 1011.3 |
| 20260507174725 | 17 | 5 | 0.0 | 3.2 | 0.00 | 1.50 | 1.50 | 92 | 1011.3 |
| 20260507174223 | 17 | 67 | 0.0 | 1.6 | 0.00 | 1.50 | 1.50 | 93 | 1011.3 |
| 20260507173720 | 17 | 34 | 0.0 | 0.0 | 0.13 | 1.50 | 1.50 | 92 | 1011.3 |
| 20260507173217 | 18 | 39 | 0.0 | 4.8 | 0.13 | 1.50 | 1.50 | 92 | 1010.7 |
| 20260507172713 | 19 | 66 | 1.6 | 4.8 | 0.00 | 1.47 | 1.47 | 90 | 1010.2 |
| 20260507172210 | 20 | 58 | 0.0 | 0.0 | 0.00 | 1.47 | 1.47 | 93 | 1010.1 |
| 20260507171710 | 20 | 33 | 0.0 | 0.0 | 0.00 | 1.47 | 1.47 | 93 | 1009.7 |
| 20260507171208 | 20 | 58 | 0.0 | 0.0 | 0.00 | 1.47 | 1.47 | 92 | 1009.5 |
| 20260507170704 | 20 | 41 | 0.0 | 0.0 | 0.00 | 1.47 | 1.47 | 92 | 1009.8 |
| 20260507170202 | 20 | 41 | 0.0 | 0.0 | 0.00 | 1.47 | 1.47 | 92 | 1009.7 |
| 20260507165657 | 21 | 41 | 0.0 | 1.6 | 0.00 | 1.47 | 1.47 | 92 | 1009.5 |
| 20260507165154 | 21 | 30 | 0.0 | 0.0 | 0.00 | 1.47 | 1.47 | 94 | 1009.7 |
| 20260507164649 | 21 | 41 | 0.0 | 0.0 | 0.00 | 1.47 | 1.47 | 93 | 1010.0 |
| 20260507164147 | 21 | 43 | 0.0 | 1.6 | 0.00 | 1.47 | 1.47 | 93 | 1010.3 |
| 20260507163644 | 21 | 41 | 0.0 | 1.6 | 0.00 | 1.47 | 1.47 | 93 | 1010.7 |
| 20260507163142 | 21 | 25 | 0.0 | 1.6 | 0.00 | 1.47 | 1.47 | 94 | 1010.8 |
| 20260507162637 | 21 | 26 | 1.6 | 1.6 | 0.18 | 1.47 | 1.47 | 94 | 1010.8 |
| 20260507162134 | 21 | 332 | 1.6 | 6.4 | 0.18 | 1.47 | 1.47 | 94 | 1010.9 |
| 20260507161630 | 21 | 267 | 0.0 | 1.6 | 0.00 | 1.45 | 1.45 | 95 | 1011.1 |
| 20260507161127 | 20 | 294 | 1.6 | 1.6 | 0.13 | 1.45 | 1.45 | 95 | 1011.0 |
| 20260507160623 | 20 | 28 | 0.0 | 1.6 | 0.13 | 1.45 | 1.45 | 94 | 1011.1 |
| 20260507160120 | 20 | 35 | 0.0 | 1.6 | 0.00 | 1.42 | 1.42 | 94 | 1011.3 |
| 20260507155615 | 20 | 37 | 0.0 | 1.6 | 0.00 | 1.42 | 1.42 | 94 | 1011.3 |
| 20260507155112 | 20 | 53 | 0.0 | 0.0 | 0.00 | 1.42 | 1.42 | 95 | 1011.2 |
| 20260507154609 | 20 | 31 | 0.0 | 1.6 | 0.00 | 1.42 | 1.42 | 94 | 1011.2 |
| 20260507154106 | 20 | 47 | 0.0 | 0.0 | 0.00 | 1.42 | 1.42 | 94 | 1010.8 |
| 20260507153603 | 20 | 49 | 0.0 | 0.0 | 0.00 | 1.42 | 1.42 | 95 | 1010.6 |
| 20260507153059 | 20 | 49 | 0.0 | 0.0 | 0.00 | 1.42 | 1.42 | 95 | 1010.6 |
| 20260507152555 | 20 | 59 | 0.0 | 0.0 | 0.00 | 1.42 | 1.42 | 95 | 1011.3 |
| 20260507152051 | 20 | 108 | 3.2 | 3.2 | 0.18 | 1.42 | 1.42 | 95 | 1010.9 |
| 20260507151548 | 20 | 65 | 0.0 | 1.6 | 0.18 | 1.42 | 1.42 | 95 | 1011.0 |
| 20260507151045 | 20 | 113 | 1.6 | 1.6 | 0.13 | 1.40 | 1.40 | 95 | 1011.1 |
| 20260507150542 | 20 | 42 | 0.0 | 0.0 | 0.13 | 1.40 | 1.40 | 95 | 1011.0 |
| 20260507150040 | 20 | 34 | 0.0 | 0.0 | 0.18 | 1.37 | 1.37 | 95 | 1011.3 |
| 20260507145540 | 20 | 36 | 0.0 | 1.6 | 0.18 | 1.37 | 1.37 | 95 | 1011.4 |
| 20260507145038 | 20 | 90 | 0.0 | 1.6 | 0.00 | 1.35 | 1.35 | 95 | 1011.2 |
| 20260507144534 | 20 | 21 | 0.0 | 0.0 | 0.13 | 1.35 | 1.35 | 95 | 1011.2 |
| 20260507144032 | 20 | 35 | 0.0 | 0.0 | 0.30 | 1.35 | 1.35 | 95 | 1011.4 |
| 20260507143529 | 20 | 15 | 0.0 | 1.6 | 0.36 | 1.32 | 1.32 | 95 | 1011.5 |
| 20260507143026 | 20 | 62 | 0.0 | 1.6 | 0.18 | 1.30 | 1.30 | 95 | 1011.6 |
| 20260507142522 | 20 | 118 | 1.6 | 3.2 | 0.00 | 1.27 | 1.27 | 95 | 1011.4 |
| 20260507142019 | 20 | 337 | 0.0 | 1.6 | 0.00 | 1.27 | 1.27 | 95 | 1011.3 |
| 20260507141515 | 20 | 80 | 1.6 | 1.6 | 0.13 | 1.27 | 1.27 | 95 | 1011.3 |
| 20260507141012 | 20 | 120 | 1.6 | 1.6 | 0.13 | 1.27 | 1.27 | 95 | 1011.4 |
| 20260507140508 | 20 | 20 | 0.0 | 1.6 | 0.61 | 1.24 | 1.24 | 95 | 1011.4 |
| 20260507140006 | 20 | 54 | 0.0 | 0.0 | 1.07 | 1.24 | 1.24 | 95 | 1011.6 |
| 20260507135502 | 20 | 23 | 0.0 | 0.0 | 1.50 | 1.12 | 1.12 | 95 | 1011.8 |
| 20260507134959 | 20 | 57 | 0.0 | 1.6 | 1.27 | 1.04 | 1.04 | 95 | 1011.9 |
| 20260507134456 | 20 | 339 | 3.2 | 4.8 | 0.30 | 0.86 | 0.86 | 95 | 1011.9 |
| 20260507133952 | 20 | 45 | 0.0 | 0.0 | 0.30 | 0.84 | 0.84 | 95 | 1011.9 |
| 20260507133448 | 20 | 78 | 0.0 | 1.6 | 0.30 | 0.81 | 0.81 | 95 | 1011.8 |
| 20260507132947 | 20 | 221 | 4.8 | 6.4 | 0.13 | 0.79 | 0.79 | 95 | 1011.6 |
| 20260507132442 | 20 | 358 | 0.0 | 3.2 | 0.00 | 0.76 | 0.76 | 95 | 1011.8 |
| 20260507131939 | 20 | 4 | 0.0 | 1.6 | 0.18 | 0.76 | 0.76 | 95 | 1011.7 |
| 20260507131436 | 20 | 31 | 0.0 | 0.0 | 0.18 | 0.76 | 0.76 | 95 | 1011.7 |
| 20260507130933 | 20 | 349 | 0.0 | 0.0 | 0.13 | 0.74 | 0.74 | 95 | 1011.9 |
| 20260507130431 | 20 | 68 | 0.0 | 1.6 | 0.18 | 0.71 | 0.71 | 95 | 1011.6 |
| 20260507125929 | 20 | 63 | 0.0 | 0.0 | 0.18 | 0.71 | 0.71 | 95 | 1011.6 |
| 20260507125426 | 19 | 16 | 0.0 | 0.0 | 0.00 | 0.69 | 0.69 | 95 | 1011.8 |
| 20260507124924 | 19 | 17 | 0.0 | 0.0 | 0.00 | 0.69 | 0.69 | 95 | 1011.8 |
| 20260507124419 | 19 | 20 | 0.0 | 1.6 | 0.00 | 0.69 | 0.69 | 95 | 1011.8 |
| 20260507123918 | 19 | 92 | 0.0 | 3.2 | 0.00 | 0.69 | 0.69 | 95 | 1011.9 |
| 20260507123415 | 19 | 56 | 0.0 | 0.0 | 0.00 | 0.69 | 0.69 | 95 | 1011.9 |
| 20260507122912 | 19 | 73 | 0.0 | 1.6 | 0.00 | 0.69 | 0.69 | 95 | 1011.8 |
| 20260507122407 | 19 | 69 | 0.0 | 3.2 | 0.00 | 0.69 | 0.69 | 95 | 1011.7 |
| 20260507121903 | 19 | 175 | 1.6 | 1.6 | 0.00 | 0.69 | 0.69 | 95 | 1011.6 |
| 20260507121358 | 19 | 121 | 0.0 | 1.6 | 0.00 | 0.69 | 0.69 | 95 | 1011.8 |
| 20260507120855 | 19 | 149 | 0.0 | 0.0 | 0.00 | 0.69 | 0.69 | 95 | 1011.7 |
| 20260507120352 | 19 | 264 | 1.6 | 3.2 | 0.00 | 0.69 | 0.69 | 95 | 1011.8 |
| 20260507115848 | 19 | 93 | 0.0 | 0.0 | 0.00 | 0.69 | 0.69 | 95 | 1012.1 |
| 20260507115344 | 19 | 356 | 0.0 | 0.0 | 0.13 | 0.69 | 0.69 | 95 | 1011.9 |
| 20260507114840 | 19 | 261 | 1.6 | 3.2 | 0.13 | 0.69 | 0.69 | 95 | 1012.0 |
| 20260507114337 | 19 | 107 | 3.2 | 3.2 | 0.18 | 0.66 | 0.66 | 95 | 1012.2 |
| 20260507113834 | 19 | 61 | 0.0 | 1.6 | 0.18 | 0.66 | 0.66 | 95 | 1012.3 |
| 20260507113331 | 19 | 39 | 0.0 | 1.6 | 0.00 | 0.64 | 0.64 | 95 | 1012.5 |
| 20260507112829 | 19 | 65 | 0.0 | 0.0 | 0.18 | 0.64 | 0.64 | 95 | 1012.1 |
| 20260507112326 | 19 | 47 | 0.0 | 1.6 | 0.18 | 0.64 | 0.64 | 95 | 1012.2 |
| 20260507111824 | 19 | 113 | 0.0 | 1.6 | 0.00 | 0.61 | 0.61 | 95 | 1012.2 |
| 20260507111320 | 19 | 29 | 0.0 | 1.6 | 0.00 | 0.61 | 0.61 | 95 | 1012.4 |
| 20260507110816 | 18 | 67 | 0.0 | 1.6 | 0.00 | 0.61 | 0.61 | 96 | 1012.4 |
| 20260507110313 | 18 | 70 | 0.0 | 1.6 | 0.00 | 0.61 | 0.61 | 96 | 1012.3 |
| 20260507105810 | 18 | 330 | 3.2 | 6.4 | 0.00 | 0.61 | 0.61 | 96 | 1011.9 |
| 20260507105307 | 18 | 54 | 0.0 | 1.6 | 0.00 | 0.61 | 0.61 | 96 | 1011.8 |
| 20260507104803 | 18 | 28 | 0.0 | 1.6 | 0.00 | 0.61 | 0.61 | 96 | 1011.7 |
| 20260507104259 | 18 | 36 | 0.0 | 3.2 | 0.00 | 0.61 | 0.61 | 96 | 1011.7 |
| 20260507103756 | 18 | 256 | 4.8 | 6.4 | 0.00 | 0.61 | 0.61 | 96 | 1011.8 |
| 20260507103252 | 18 | 89 | 1.6 | 1.6 | 0.00 | 0.61 | 0.61 | 96 | 1011.9 |
| 20260507102748 | 18 | 163 | 1.6 | 3.2 | 0.00 | 0.61 | 0.61 | 96 | 1011.7 |
| 20260507102245 | 18 | 89 | 0.0 | 0.0 | 0.00 | 0.61 | 0.61 | 96 | 1011.7 |
| 20260507101741 | 18 | 24 | 0.0 | 1.6 | 0.13 | 0.61 | 0.61 | 96 | 1011.7 |
| 20260507101236 | 18 | 46 | 0.0 | 1.6 | 0.13 | 0.61 | 0.61 | 96 | 1011.6 |
| 20260507100734 | 18 | 39 | 0.0 | 0.0 | 0.00 | 0.58 | 0.58 | 96 | 1011.8 |
| 20260507100232 | 18 | 105 | 1.6 | 1.6 | 0.18 | 0.58 | 0.58 | 96 | 1011.7 |
| 20260507095730 | 18 | 27 | 0.0 | 0.0 | 0.18 | 0.58 | 0.58 | 96 | 1011.7 |
| 20260507095226 | 18 | 17 | 0.0 | 0.0 | 0.00 | 0.56 | 0.56 | 96 | 1011.8 |
| 20260507094723 | 18 | 80 | 0.0 | 1.6 | 0.00 | 0.56 | 0.56 | 96 | 1011.8 |
| 20260507094220 | 18 | 35 | 0.0 | 0.0 | 0.00 | 0.56 | 0.56 | 96 | 1011.9 |
| 20260507093717 | 18 | 35 | 0.0 | 0.0 | 0.00 | 0.56 | 0.56 | 96 | 1011.8 |
| 20260507093215 | 18 | 19 | 0.0 | 0.0 | 0.00 | 0.56 | 0.56 | 96 | 1011.9 |
| 20260507092713 | 18 | 25 | 0.0 | 0.0 | 0.13 | 0.56 | 0.56 | 96 | 1011.6 |
| 20260507092209 | 18 | 4 | 0.0 | 0.0 | 0.13 | 0.56 | 0.56 | 96 | 1011.8 |
| 20260507091705 | 18 | 17 | 0.0 | 1.6 | 0.00 | 0.53 | 0.53 | 96 | 1011.7 |
| 20260507091202 | 18 | 40 | 0.0 | 0.0 | 0.00 | 0.53 | 0.53 | 96 | 1011.7 |
| 20260507090657 | 18 | 32 | 0.0 | 0.0 | 0.00 | 0.53 | 0.53 | 96 | 1011.9 |
| 20260507090154 | 18 | 31 | 0.0 | 0.0 | 0.18 | 0.53 | 0.53 | 96 | 1011.9 |
| 20260507085651 | 18 | 46 | 0.0 | 0.0 | 0.00 | 0.51 | 0.51 | 96 | 1011.9 |
| 20260507085148 | 18 | 31 | 0.0 | 0.0 | 0.00 | 0.51 | 0.51 | 96 | 1012.0 |
| 20260507084645 | 18 | 60 | 0.0 | 0.0 | 0.00 | 0.51 | 0.51 | 96 | 1012.2 |
| 20260507084142 | 18 | 70 | 0.0 | 0.0 | 0.00 | 0.51 | 0.51 | 96 | 1012.0 |
| 20260507083638 | 18 | 61 | 0.0 | 0.0 | 0.00 | 0.51 | 0.51 | 96 | 1012.4 |
| 20260507083135 | 18 | 59 | 0.0 | 0.0 | 0.00 | 0.51 | 0.51 | 96 | 1012.5 |
| 20260507082631 | 18 | 7 | 0.0 | 0.0 | 0.00 | 0.51 | 0.51 | 96 | 1012.6 |
| 20260507082128 | 18 | 12 | 0.0 | 0.0 | 0.00 | 0.51 | 0.51 | 96 | 1012.7 |
| 20260507081624 | 18 | 33 | 0.0 | 0.0 | 0.13 | 0.51 | 0.51 | 96 | 1012.9 |
| 20260507081121 | 18 | 30 | 0.0 | 1.6 | 0.13 | 0.51 | 0.51 | 96 | 1013.1 |
| 20260507080617 | 18 | 35 | 0.0 | 0.0 | 0.00 | 0.48 | 0.48 | 96 | 1012.6 |
| 20260507080114 | 18 | 81 | 0.0 | 1.6 | 0.18 | 0.48 | 0.48 | 96 | 1012.4 |
| 20260507075608 | 18 | 23 | 0.0 | 1.6 | 0.18 | 0.48 | 0.48 | 96 | 1012.4 |
| 20260507075105 | 18 | 45 | 0.0 | 1.6 | 0.13 | 0.46 | 0.46 | 96 | 1011.9 |
| 20260507074602 | 18 | 89 | 0.0 | 1.6 | 0.43 | 0.46 | 0.46 | 96 | 1012.6 |
| 20260507074101 | 18 | 23 | 0.0 | 0.0 | 0.13 | 0.41 | 0.41 | 96 | 1012.6 |
| 20260507073556 | 18 | 27 | 0.0 | 1.6 | 0.00 | 0.38 | 0.38 | 96 | 1013.1 |
| 20260507073053 | 18 | 7 | 0.0 | 1.6 | 0.00 | 0.38 | 0.38 | 96 | 1013.0 |
| 20260507072550 | 18 | 358 | 0.0 | 0.0 | 0.00 | 0.38 | 0.38 | 96 | 1013.2 |
| 20260507072047 | 18 | 40 | 0.0 | 0.0 | 0.00 | 0.38 | 0.38 | 96 | 1013.0 |
| 20260507071545 | 18 | 59 | 0.0 | 0.0 | 0.00 | 0.38 | 0.38 | 96 | 1012.7 |
| 20260507071041 | 18 | 59 | 0.0 | 0.0 | 0.00 | 0.38 | 0.38 | 96 | 1013.1 |
| 20260507070538 | 18 | 45 | 0.0 | 0.0 | 0.00 | 0.38 | 0.38 | 96 | 1012.7 |
| 20260507070035 | 18 | 84 | 0.0 | 1.6 | 0.00 | 0.38 | 0.38 | 95 | 1012.5 |
| 20260507065531 | 18 | 91 | 0.0 | 0.0 | 0.00 | 0.38 | 0.38 | 95 | 1013.0 |
| 20260507065029 | 18 | 36 | 0.0 | 0.0 | 0.00 | 0.38 | 0.38 | 95 | 1013.0 |
| 20260507064527 | 18 | 36 | 0.0 | 0.0 | 0.00 | 0.38 | 0.38 | 95 | 1013.1 |
| 20260507064025 | 18 | 41 | 0.0 | 0.0 | 0.00 | 0.38 | 0.38 | 95 | 1013.4 |
| 20260507063522 | 18 | 15 | 0.0 | 0.0 | 0.00 | 0.38 | 0.38 | 95 | 1013.6 |
| 20260507063019 | 18 | 66 | 0.0 | 0.0 | 0.00 | 0.38 | 0.38 | 95 | 1013.6 |
| 20260507062515 | 18 | 33 | 0.0 | 0.0 | 0.00 | 0.38 | 0.38 | 95 | 1013.6 |
| 20260507062014 | 18 | 254 | 1.6 | 1.6 | 0.00 | 0.38 | 0.38 | 95 | 1013.5 |
| 20260507061511 | 18 | 110 | 0.0 | 1.6 | 0.00 | 0.38 | 0.38 | 95 | 1013.4 |
| 20260507061009 | 18 | 86 | 1.6 | 1.6 | 0.00 | 0.38 | 0.38 | 95 | 1013.8 |
| 20260507060506 | 18 | 35 | 0.0 | 0.0 | 0.00 | 0.38 | 0.38 | 95 | 1013.9 |
| 20260507060003 | 18 | 38 | 0.0 | 0.0 | 0.00 | 0.38 | 0.38 | 94 | 1013.8 |
| 20260507055458 | 18 | 40 | 0.0 | 0.0 | 0.00 | 0.38 | 0.38 | 94 | 1013.9 |
| 20260507054954 | 18 | 32 | 0.0 | 0.0 | 0.00 | 0.38 | 0.38 | 94 | 1014.0 |
| 20260507054450 | 18 | 29 | 0.0 | 0.0 | 0.00 | 0.38 | 0.38 | 94 | 1013.6 |
| 20260507053948 | 18 | 8 | 0.0 | 0.0 | 0.00 | 0.38 | 0.38 | 94 | 1013.7 |
| 20260507053446 | 18 | 248 | 1.6 | 3.2 | 0.00 | 0.38 | 0.38 | 93 | 1012.9 |
| 20260507052944 | 18 | 210 | 0.0 | 1.6 | 0.00 | 0.38 | 0.38 | 93 | 1012.9 |
| 20260507052441 | 18 | 90 | 1.6 | 3.2 | 0.18 | 0.38 | 0.38 | 93 | 1013.1 |
| 20260507051938 | 18 | 110 | 1.6 | 3.2 | 0.30 | 0.36 | 0.36 | 92 | 1013.2 |
| 20260507051435 | 18 | 234 | 1.6 | 3.2 | 0.48 | 0.36 | 0.36 | 92 | 1013.2 |
| 20260507050932 | 19 | 220 | 6.4 | 9.7 | 0.48 | 0.30 | 0.30 | 92 | 1013.4 |
| 20260507050429 | 19 | 217 | 3.2 | 4.8 | 0.18 | 0.25 | 0.25 | 92 | 1013.9 |
| 20260507045926 | 19 | 2 | 0.0 | 3.2 | 0.13 | 0.23 | 0.23 | 92 | 1014.2 |
| 20260507045422 | 19 | 126 | 1.6 | 1.6 | 0.30 | 0.23 | 0.23 | 91 | 1014.6 |
| 20260507044919 | 19 | 33 | 0.0 | 1.6 | 0.30 | 0.20 | 0.20 | 91 | 1014.8 |
| 20260507044416 | 20 | 359 | 0.0 | 4.8 | 0.71 | 0.18 | 0.18 | 90 | 1015.1 |
| 20260507043912 | 20 | 17 | 1.6 | 3.2 | 0.61 | 0.15 | 0.15 | 90 | 1015.3 |
| 20260507043409 | 20 | 12 | 0.0 | 6.4 | 0.18 | 0.05 | 0.05 | 88 | 1015.2 |
| 20260507042905 | 20 | 16 | 0.0 | 3.2 | 0.36 | 0.05 | 0.05 | 87 | 1015.0 |
| 20260507042402 | 20 | 33 | 1.6 | 4.8 | 0.18 | 0.03 | 0.03 | 85 | 1015.1 |
| 20260507041857 | 21 | 328 | 6.4 | 11.3 | 0.00 | 0.00 | 0.00 | 83 | 1015.0 |
| 20260507041354 | 21 | 330 | 1.6 | 1.6 | 0.00 | 0.00 | 0.00 | 83 | 1015.1 |
| 20260507040852 | 20 | 35 | 0.0 | 3.2 | 0.00 | 0.00 | 0.00 | 83 | 1014.6 |
| 20260507040347 | 20 | 29 | 0.0 | 1.6 | 0.13 | 0.00 | 0.00 | 83 | 1014.6 |
| 20260507035844 | 21 | 41 | 0.0 | 1.6 | 0.13 | 0.51 | 0.51 | 83 | 1014.4 |
| 20260507035339 | 21 | 19 | 0.0 | 0.0 | 0.00 | 0.48 | 0.48 | 82 | 1014.3 |
| 20260507034837 | 21 | 334 | 0.0 | 1.6 | 0.00 | 0.48 | 0.48 | 80 | 1014.1 |
| 20260507034334 | 21 | 6 | 0.0 | 1.6 | 0.00 | 0.48 | 0.48 | 78 | 1013.8 |
| 20260507033832 | 22 | 47 | 0.0 | 1.6 | 0.00 | 0.48 | 0.48 | 76 | 1013.5 |
| 20260507033330 | 22 | 91 | 1.6 | 1.6 | 0.00 | 0.48 | 0.48 | 74 | 1013.7 |
| 20260507032826 | 22 | 35 | 0.0 | 1.6 | 0.00 | 0.48 | 0.48 | 73 | 1014.0 |
| 20260507032322 | 22 | 10 | 1.6 | 1.6 | 0.00 | 0.48 | 0.48 | 72 | 1014.3 |
| 20260507031819 | 22 | 336 | 3.2 | 4.8 | 0.00 | 0.48 | 0.48 | 72 | 1014.2 |
| 20260507031316 | 22 | 280 | 1.6 | 3.2 | 0.00 | 0.48 | 0.48 | 72 | 1014.2 |
| 20260507030812 | 22 | 157 | 3.2 | 3.2 | 0.00 | 0.48 | 0.48 | 72 | 1014.2 |
| 20260507030310 | 22 | 308 | 0.0 | 3.2 | 0.00 | 0.48 | 0.48 | 73 | 1014.0 |